Location: Ostrava
(49.8330°N, 18.2830°E)
Time: 02:53:26
(UTC+02:00)

Transit 2A - All Passes

Search period start: 02 July 2015 00:00
Search period end: 12 July 2015 00:00
Orbit: 595 x 966 km, 66.7° (Epoch: 30 June)

Date Brightness Start Highest point End Pass type
(mag) Time Alt. Az. Time Alt. Az. Time Alt. Az.
02 Jul - 00:43:02 10° NW 00:47:45 35° WSW 00:52:00 10° S visible
02 Jul - 13:45:14 10° SE 13:48:43 16° ESE 13:52:22 10° ENE daylight
02 Jul - 15:25:01 10° SSW 15:31:18 74° ESE 15:37:14 10° NE daylight
02 Jul - 17:09:33 10° W 17:15:06 33° NW 17:20:16 10° NNE daylight
02 Jul - 18:56:39 10° NW 19:00:08 16° NNW 19:03:24 10° NNE daylight
02 Jul - 20:42:23 10° NNW 20:45:40 16° NNE 20:48:49 10° NE daylight
02 Jul - 22:25:39 10° NNW 22:30:37 35° NE 22:35:08 10° ESE visible
03 Jul - 00:09:00 10° NW 00:14:04 49° WSW 00:18:36 10° SSE visible
03 Jul - 13:13:39 10° ESE 13:15:07 11° ESE 13:16:58 10° E daylight
03 Jul - 14:51:21 10° SSW 14:57:30 56° ESE 15:03:19 10° NE daylight
03 Jul - 16:35:13 10° WSW 16:41:03 40° NW 16:46:29 10° NNE daylight
03 Jul - 18:22:02 10° WNW 18:25:53 17° NNW 18:29:29 10° NNE daylight
03 Jul - 20:08:22 10° NNW 20:11:24 14° N 20:14:19 10° NE daylight
03 Jul - 21:51:52 10° NNW 21:56:33 28° NNE 22:00:51 10° E visible
03 Jul - 23:35:04 10° NW 23:40:19 69° WSW 23:45:01 10° SSE visible
04 Jul - 01:21:32 10° W 01:22:28 10° WSW 01:23:06 10° WSW visible
04 Jul - 14:17:54 10° S 14:23:45 42° ESE 14:29:21 10° NE daylight
04 Jul - 16:01:00 10° WSW 16:07:03 50° NW 16:12:43 10° NNE daylight
04 Jul - 17:47:25 10° WNW 17:51:40 19° NNW 17:55:37 10° NNE daylight
04 Jul - 19:34:15 10° NNW 19:37:07 14° N 19:39:54 10° NE daylight
04 Jul - 21:18:04 10° NNW 21:22:25 24° NNE 21:26:28 10° E daylight
04 Jul - 23:01:11 10° NW 23:06:30 86° NE 23:11:16 10° SE visible
05 Jul - 00:45:56 10° WNW 00:48:55 16° WSW 00:51:36 10° SW visible
05 Jul - 13:44:37 10° S 13:50:02 32° ESE 13:55:17 10° NE daylight
05 Jul - 15:26:53 10° SW 15:33:07 63° NW 15:38:55 10° NNE daylight
05 Jul - 17:12:49 10° WNW 17:17:29 22° NNW 17:21:48 10° NNE daylight
05 Jul - 18:59:58 10° NNW 19:02:51 14° N 19:05:35 10° NNE daylight
05 Jul - 20:44:16 10° NNW 20:48:15 20° NNE 20:52:01 10° ENE daylight
05 Jul - 22:27:20 10° NNW 22:32:38 64° NE 22:37:22 10° SE visible
06 Jul - 00:11:25 10° WNW 00:15:20 22° WSW 00:18:53 10° SSW visible
06 Jul - 13:11:35 10° SSE 13:16:21 24° ESE 13:21:05 10° ENE daylight
06 Jul - 14:52:55 10° SW 14:59:13 80° NW 15:05:06 10° NE daylight
06 Jul - 16:38:17 10° W 16:43:20 26° NNW 16:48:01 10° NNE daylight
06 Jul - 18:25:33 10° NW 18:28:34 14° N 18:31:25 10° NNE daylight
06 Jul - 20:10:26 10° NNW 20:14:03 18° NNE 20:17:29 10° ENE daylight
06 Jul - 21:53:31 10° NNW 21:58:42 48° NE 22:03:20 10° ESE visible
06 Jul - 23:37:12 10° NW 23:41:43 31° WSW 23:45:48 10° S visible
07 Jul - 12:38:54 10° SE 12:42:43 17° ESE 12:46:38 10° ENE daylight
07 Jul - 14:19:05 10° SSW 14:25:22 80° SE 14:31:15 10° NE daylight
07 Jul - 16:03:49 10° W 16:09:14 31° NW 16:14:14 10° NNE daylight
07 Jul - 17:51:00 10° NW 17:54:18 15° NNW 17:57:23 10° NNE daylight
07 Jul - 19:36:33 10° NNW 19:39:49 16° NNE 19:42:57 10° NE daylight
07 Jul - 21:19:43 10° NNW 21:24:41 37° NE 21:29:11 10° ESE daylight
07 Jul - 23:03:08 10° NW 23:08:02 44° WSW 23:12:27 10° S visible
08 Jul - 12:06:55 10° SE 12:09:06 12° ESE 12:11:36 10° E daylight
08 Jul - 13:45:23 10° SSW 13:51:33 61° ESE 13:57:22 10° NE daylight
08 Jul - 15:29:27 10° WSW 15:35:10 37° NW 15:40:28 10° NNE daylight
08 Jul - 17:16:24 10° NW 17:20:02 16° NNW 17:23:27 10° NNE daylight
08 Jul - 19:02:35 10° NNW 19:05:33 14° N 19:08:26 10° NE daylight
08 Jul - 20:45:57 10° NNW 20:50:37 30° NE 20:54:56 10° E daylight
08 Jul - 22:29:10 10° NW 22:34:18 62° WSW 22:38:54 10° SSE visible
09 Jul - 13:11:52 10° S 13:17:47 46° ESE 13:23:25 10° NE daylight
09 Jul - 14:55:12 10° WSW 15:01:10 46° NW 15:06:42 10° NNE daylight
09 Jul - 16:41:46 10° WNW 16:45:49 18° NNW 16:49:34 10° NNE daylight
09 Jul - 18:28:30 10° NNW 18:31:17 14° N 18:33:59 10° NE daylight
09 Jul - 20:12:09 10° NNW 20:16:31 24° NNE 20:20:35 10° E daylight
09 Jul - 21:55:16 10° NW 22:00:31 87° SW 22:05:12 10° SSE visible
09 Jul - 23:40:20 10° WNW 23:42:51 14° WSW 23:45:03 10° SW visible
10 Jul - 12:38:32 10° S 12:44:03 34° ESE 12:49:22 10° NE daylight
10 Jul - 14:21:04 10° SW 14:27:12 58° NW 14:32:54 10° NNE daylight
10 Jul - 16:07:10 10° WNW 16:11:37 21° NNW 16:15:46 10° NNE daylight
10 Jul - 17:54:16 10° NNW 17:57:00 13° N 17:59:38 10° NNE daylight
10 Jul - 19:38:22 10° NNW 19:42:22 21° NNE 19:46:08 10° ENE daylight
10 Jul - 21:21:25 10° NNW 21:26:39 70° NE 21:31:21 10° SE daylight
10 Jul - 23:05:39 10° WNW 23:09:16 20° WSW 23:12:33 10° SSW visible
11 Jul - 12:05:25 10° SSE 12:10:22 26° ESE 12:15:13 10° ENE daylight
11 Jul - 13:47:02 10° SW 13:53:18 75° NW 13:59:06 10° NE daylight
11 Jul - 15:32:36 10° W 15:37:28 24° NNW 15:41:58 10° NNE daylight
11 Jul - 17:19:53 10° NW 17:22:44 14° N 17:25:26 10° NNE daylight
11 Jul - 19:04:33 10° NNW 19:08:10 18° NNE 19:11:38 10° ENE daylight
11 Jul - 20:47:35 10° NNW 20:52:44 52° NE 20:57:21 10° ESE daylight
11 Jul - 22:31:22 10° NW 22:35:40 28° WSW 22:39:33 10° S visible
